ZIYUAN 3-2 (ZY 3-2)

Last updated on Mon Nov 03 2025 00:02:35 GMT+0000 (Coordinated Universal Time)

1 41556U 16033A 25306.53299377 .00007572 00000+0 34171-3 0 9994 2 41556 97.4087 21.3578 0012397 36.7762 323.4322 15.21209854523520
UTC large
Height (km)
Speed (km/s)
/
Latitude / Longitude
Inclination (degrees)
Orbital Period (minutes)
Azimuth
Elevation
Range (km)
Doppler Factor

Next 0 passes for location: London (51.5072 / 0.1276)

Sorry there are no passes over London.